Terminal Aerodrome Forecast
Issued by NWS

Home | Current Version | Previous Version | Text Only | Print | Product List | Glossary On
Versions: 1 2 3 4 5 6 7 8 9 10 11 12 13 14 15
000
FTUS43 KEAX 211100
TAFMKC
TAF
KMKC 211125Z 2112/2212 21009KT P6SM SKC WS020/23035KT
     FM211300 22015G22KT P6SM SCT070
     FM212300 19011KT P6SM SCT130=

USA.gov is the U.S. government's official web portal to all federal, state and local government web resources and services.